K9MWD Weather Reports


Display with metric or nautical units.
time (UTC)temp
F
wind
direction
speed
MPH
gust
MPH
rain 1hr
in
rain 24hr
in
rain mn
in
humidity
%
barometer
mb
20260505164239 79 232 9.0 11.0 0.00 0.00 0.00 73 1006.2
20260505163737 80 187 7.0 8.0 0.00 0.00 0.00 73 1006.3
20260505163235 78 220 7.0 10.0 0.00 0.00 0.00 74 1006.2
20260505162732 79 202 7.0 10.0 0.00 0.00 0.00 74 1006.3
20260505162229 79 184 12.0 17.0 0.00 0.00 0.00 73 1005.9
20260505161726 78 239 8.0 10.0 0.00 0.00 0.00 74 1006.0
20260505161224 78 186 10.0 11.0 0.00 0.00 0.00 75 1006.1
20260505160721 78 179 6.0 9.0 0.00 0.00 0.00 75 1006.3
20260505160219 78 168 13.0 16.0 0.00 0.00 0.00 75 1006.1
20260505153157 76 186 10.0 14.0 0.00 0.00 0.00 78 1006.2
20260505152654 76 180 16.0 22.0 0.00 0.00 0.00 78 1006.1
20260505152150 76 233 8.0 11.0 0.00 0.00 0.00 78 1006.4
20260505151646 76 196 9.0 11.0 0.00 0.00 0.00 78 1006.2
20260505151143 75 183 10.0 13.0 0.00 0.00 0.00 78 1006.3
20260505150639 75 184 14.0 18.0 0.00 0.00 0.00 78 1006.6
20260505150137 75 198 8.0 10.0 0.00 0.00 0.00 79 1006.3
20260505140605 74 183 8.0 10.0 0.00 0.00 0.00 81 1006.0
20260505125018 71 139 7.0 10.0 0.00 0.00 0.00 85 1005.5
20260505124515 71 203 10.0 14.0 0.00 0.00 0.00 85 1005.5
20260505124011 71 157 8.0 8.0 0.00 0.00 0.00 85 1005.6
20260505123508 71 245 4.0 6.0 0.00 0.00 0.00 85 1005.4
20260505123004 70 199 13.0 15.0 0.00 0.00 0.00 85 1005.3
20260505122501 70 173 7.0 11.0 0.00 0.00 0.00 85 1005.2
20260505121958 70 173 7.0 9.0 0.00 0.00 0.00 85 1005.1
20260505121455 70 220 6.0 8.0 0.00 0.00 0.00 85 1005.1
20260505120951 70 198 9.0 13.0 0.00 0.00 0.00 85 1005.1
20260505120447 70 169 2.0 3.0 0.00 0.00 0.00 85 1005.3
20260505115946 70 207 9.0 15.0 0.00 0.00 0.00 85 1005.0
20260505115443 70 179 6.0 6.0 0.00 0.00 0.00 85 1005.1
20260505114941 70 185 5.0 9.0 0.00 0.00 0.00 85 1005.2
20260505114432 70 217 6.0 8.0 0.00 0.00 0.00 85 1005.0
20260505113929 70 199 7.0 9.0 0.00 0.00 0.00 85 1005.1
20260505113425 70 163 7.0 13.0 0.00 0.00 0.00 85 1005.0
20260505112921 70 205 8.0 10.0 0.00 0.00 0.00 85 1005.0
20260505112419 70 187 6.0 9.0 0.00 0.00 0.00 85 1005.2
20260505111915 70 169 7.0 11.0 0.00 0.00 0.00 85 1005.2
20260505111409 70 196 9.0 11.0 0.00 0.00 0.00 85 1005.1
20260505110906 70 166 8.0 11.0 0.00 0.00 0.00 85 1004.9
20260505110403 70 196 11.0 13.0 0.00 0.00 0.00 85 1004.7
20260505101833 70 179 6.0 9.0 0.00 0.00 0.00 85 1005.1
20260505101329 70 140 3.0 6.0 0.00 0.00 0.00 85 1004.9
20260505100825 70 166 4.0 6.0 0.00 0.00 0.00 85 1005.0
20260505100321 70 230 9.0 9.0 0.00 0.00 0.00 84 1004.9
20260505095817 70 190 4.0 6.0 0.00 0.00 0.00 84 1004.9
20260505095315 70 208 4.0 5.0 0.00 0.00 0.00 84 1005.1
20260505094810 70 174 9.0 10.0 0.00 0.00 0.00 84 1005.2
20260505094308 70 180 12.0 15.0 0.00 0.00 0.00 84 1005.1
20260505093803 70 191 9.0 13.0 0.00 0.00 0.00 84 1005.4
20260505093301 70 211 6.0 7.0 0.00 0.00 0.00 84 1005.2
20260505092757 70 191 6.0 7.0 0.00 0.00 0.00 84 1005.5
20260505092256 70 181 9.0 11.0 0.00 0.00 0.00 84 1005.3
20260505091753 70 188 9.0 11.0 0.00 0.00 0.00 84 1005.3
20260505091251 70 152 5.0 7.0 0.00 0.00 0.00 84 1005.3
20260505090749 70 219 13.0 18.0 0.00 0.00 0.00 83 1005.1
20260505090247 71 212 8.0 9.0 0.00 0.00 0.00 83 1005.4
20260505085744 71 211 7.0 9.0 0.00 0.00 0.00 83 1005.3
20260505085242 71 159 12.0 16.0 0.00 0.00 0.00 83 1005.1
20260505084739 71 210 9.0 11.0 0.00 0.00 0.00 83 1005.2
20260505084238 71 198 6.0 7.0 0.00 0.00 0.00 83 1005.2
20260505083734 71 167 9.0 11.0 0.00 0.00 0.00 83 1005.2
20260505083231 71 211 11.0 17.0 0.00 0.00 0.00 83 1005.2
20260505082727 71 194 5.0 9.0 0.00 0.00 0.00 83 1005.4
20260505082225 71 207 5.0 7.0 0.00 0.00 0.00 83 1005.1
20260505081720 71 191 9.0 10.0 0.00 0.00 0.00 83 1005.5
20260505081218 71 182 6.0 8.0 0.00 0.00 0.00 83 1005.3
20260505080715 71 191 8.0 10.0 0.00 0.00 0.00 83 1005.4
20260505080210 71 140 12.0 15.0 0.00 0.00 0.00 83 1005.8
20260505075706 70 210 12.0 17.0 0.00 0.00 0.00 83 1005.7
20260505075204 70 175 7.0 10.0 0.00 0.00 0.00 84 1005.7
20260505074701 70 231 12.0 16.0 0.00 0.00 0.00 84 1005.8
20260505074157 70 195 6.0 7.0 0.00 0.00 0.00 84 1005.8
20260505073655 70 213 6.0 8.0 0.00 0.00 0.00 84 1006.1
20260505073153 70 202 5.0 9.0 0.00 0.00 0.00 84 1005.8
20260505072648 70 182 7.0 8.0 0.00 0.00 0.00 84 1006.2
20260505072145 70 122 7.0 11.0 0.00 0.00 0.00 83 1006.4
20260505071641 70 137 7.0 9.0 0.00 0.00 0.00 83 1006.3
20260505071139 70 170 9.0 11.0 0.00 0.00 0.00 83 1006.4
20260505070636 70 180 7.0 10.0 0.00 0.00 0.00 83 1006.4
20260505070132 70 128 5.0 7.0 0.00 0.00 0.00 83 1006.5
20260505065628 70 219 9.0 10.0 0.00 0.00 0.00 83 1006.5
20260505065125 71 77 8.0 14.0 0.00 0.00 0.00 83 1006.7
20260505064622 71 219 5.0 7.0 0.00 0.00 0.00 82 1006.8
20260505064120 71 169 6.0 8.0 0.00 0.00 0.00 82 1006.8
20260505063617 71 174 10.0 13.0 0.00 0.00 0.00 82 1006.7
20260505063113 71 259 10.0 14.0 0.00 0.00 0.00 82 1006.8
20260505062609 71 136 7.0 10.0 0.00 0.00 0.00 82 1006.9
20260505062107 71 243 6.0 8.0 0.00 0.00 0.00 81 1006.8
20260505061604 71 179 8.0 10.0 0.00 0.00 0.00 81 1006.7
20260505061102 71 203 10.0 13.0 0.00 0.00 0.00 81 1006.8
20260505060559 71 184 8.0 10.0 0.00 0.00 0.00 81 1006.7
20260505060056 71 221 9.0 15.0 0.00 0.00 0.00 81 1006.7
20260505055551 71 199 5.0 7.0 0.00 0.00 0.00 81 1006.8
20260505055048 71 169 9.0 11.0 0.00 0.00 0.00 81 1006.7
20260505054545 71 246 7.0 10.0 0.00 0.00 0.00 80 1006.6
20260505054043 72 201 6.0 9.0 0.00 0.00 0.00 80 1006.9
20260505053540 72 180 5.0 7.0 0.00 0.00 0.00 80 1007.1
20260505053037 72 197 11.0 13.0 0.00 0.00 0.00 80 1007.0
20260505052534 72 187 8.0 9.0 0.00 0.00 0.00 79 1007.1
20260505052032 72 204 7.0 9.0 0.00 0.00 0.00 79 1007.0
20260505051528 72 198 7.0 8.0 0.00 0.00 0.00 79 1006.9
20260505051026 72 140 6.0 8.0 0.00 0.00 0.00 79 1007.0
20260505050524 72 184 6.0 10.0 0.00 0.00 0.00 79 1007.0
20260505041452 73 193 6.0 7.0 0.00 0.00 0.00 77 1007.4
20260505040949 73 197 5.0 8.0 0.00 0.00 0.00 77 1007.2
20260505040446 73 210 5.0 8.0 0.00 0.00 0.00 76 1007.3
20260505035943 73 176 6.0 7.0 0.00 0.00 0.00 76 1007.4
20260505035439 73 197 3.0 3.0 0.00 0.00 0.00 76 1007.2
20260505034936 73 203 5.0 7.0 0.00 0.00 0.00 76 1007.2
20260505034433 73 106 3.0 3.0 0.00 0.00 0.00 76 1007.3
20260505033930 73 129 3.0 3.0 0.00 0.00 0.00 76 1007.2
20260505033426 73 102 3.0 6.0 0.00 0.00 0.00 75 1007.2
20260505032925 73 154 4.0 5.0 0.00 0.00 0.00 75 1007.2
20260505032422 73 191 6.0 8.0 0.00 0.00 0.00 75 1007.2
20260505031918 73 150 6.0 8.0 0.00 0.00 0.00 75 1007.3
20260505031415 73 232 6.0 8.0 0.00 0.00 0.00 75 1007.6
20260505030912 73 181 3.0 5.0 0.00 0.00 0.00 75 1007.3
20260505030408 73 229 2.0 3.0 0.00 0.00 0.00 75 1007.4
20260505025903 73 164 3.0 3.0 0.00 0.00 0.00 75 1007.2
20260505025401 73 148 3.0 5.0 0.00 0.00 0.00 75 1007.0
20260505024900 73 187 4.0 5.0 0.00 0.00 0.00 75 1007.0
20260505024357 73 164 5.0 7.0 0.00 0.00 0.00 74 1006.9
20260505023854 73 146 5.0 7.0 0.00 0.00 0.00 74 1006.9
20260505023351 74 185 6.0 8.0 0.00 0.00 0.00 74 1007.0
20260505022848 74 178 2.0 3.0 0.00 0.00 0.00 74 1007.0
20260505022345 74 177 4.0 6.0 0.00 0.00 0.00 74 1007.0
20260505021842 74 284 5.0 7.0 0.00 0.00 0.00 73 1006.9
20260505021339 74 187 7.0 9.0 0.00 0.00 0.00 73 1006.7
20260505020834 74 81 2.0 3.0 0.00 0.00 0.00 73 1006.8
20260505020330 74 160 3.0 5.0 0.00 0.00 0.00 73 1006.7
20260505015827 74 192 3.0 3.0 0.00 0.00 0.00 72 1006.7
20260505015324 74 135 3.0 6.0 0.00 0.00 0.00 72 1007.0
20260505014822 75 152 3.0 7.0 0.00 0.00 0.00 72 1006.7
20260505014319 75 112 4.0 6.0 0.00 0.00 0.00 72 1006.9
20260505013815 75 147 3.0 5.0 0.00 0.00 0.00 71 1006.9
20260505013312 75 162 4.0 6.0 0.00 0.00 0.00 70 1006.8
20260505012811 75 135 4.0 8.0 0.00 0.00 0.00 70 1006.9
20260505012308 75 209 4.0 7.0 0.00 0.00 0.00 69 1006.9
20260505011804 75 92 5.0 6.0 0.00 0.00 0.00 69 1006.7
20260505011301 75 175 3.0 5.0 0.00 0.00 0.00 70 1006.6
20260505010757 76 163 8.0 9.0 0.00 0.00 0.00 70 1006.7
20260505010253 76 179 4.0 5.0 0.00 0.00 0.00 70 1006.7
20260505005749 76 174 5.0 6.0 0.00 0.00 0.00 69 1006.8
20260505005246 76 237 3.0 5.0 0.00 0.00 0.00 68 1006.8
20260505004744 77 139 10.0 16.0 0.00 0.00 0.00 68 1006.7
20260505004240 77 219 11.0 13.0 0.00 0.00 0.00 67 1006.9
20260505003737 77 190 6.0 8.0 0.00 0.00 0.00 67 1006.9
20260505003235 77 186 7.0 9.0 0.00 0.00 0.00 67 1007.0
20260505002731 77 160 7.0 8.0 0.00 0.00 0.00 67 1007.1
20260505002228 77 205 4.0 6.0 0.00 0.00 0.00 66 1007.1
20260505001726 78 174 5.0 7.0 0.00 0.00 0.00 66 1007.2
20260505001223 78 216 4.0 6.0 0.00 0.00 0.00 66 1007.4
20260505000720 78 139 8.0 11.0 0.00 0.00 0.00 65 1007.3
20260505000219 78 180 11.0 14.0 0.00 0.00 0.00 65 1007.2
20260504235714 78 225 5.0 7.0 0.00 0.00 0.00 65 1007.1
20260504235210 78 195 9.0 14.0 0.00 0.00 0.00 64 1007.2
20260504234708 78 204 7.0 10.0 0.00 0.00 0.00 64 1007.1
20260504234205 79 226 5.0 7.0 0.00 0.00 0.00 63 1007.3
20260504233701 79 104 13.0 16.0 0.00 0.00 0.00 63 1007.5
20260504233157 79 130 7.0 10.0 0.00 0.00 0.00 63 1007.3
20260504232654 79 192 6.0 9.0 0.00 0.00 0.00 63 1007.5
20260504232151 79 197 13.0 15.0 0.00 0.00 0.00 62 1007.6
20260504231648 79 205 13.0 15.0 0.00 0.00 0.00 62 1007.5
20260504231144 79 174 7.0 10.0 0.00 0.00 0.00 62 1007.3
20260504230641 79 183 10.0 13.0 0.00 0.00 0.00 62 1007.6
20260504230140 79 179 10.0 13.0 0.00 0.00 0.00 62 1007.7
20260504225638 80 183 6.0 8.0 0.00 0.00 0.00 61 1007.8
20260504225133 80 202 8.0 9.0 0.00 0.00 0.00 61 1007.6
20260504224630 80 224 9.0 10.0 0.00 0.00 0.00 61 1007.8
20260504224127 80 163 11.0 14.0 0.00 0.00 0.00 60 1007.8
20260504223624 81 178 7.0 9.0 0.00 0.00 0.00 60 1008.1
20260504223120 80 238 5.0 8.0 0.00 0.00 0.00 61 1007.9
20260504222617 80 194 11.0 14.0 0.00 0.00 0.00 60 1007.8
20260504222114 80 197 4.0 6.0 0.00 0.00 0.00 61 1007.9
20260504221611 80 251 11.0 13.0 0.00 0.00 0.00 61 1007.8
20260504221108 80 209 7.0 9.0 0.00 0.00 0.00 60 1007.9
20260504220604 80 177 10.0 13.0 0.00 0.00 0.00 61 1008.1
20260504215558 80 351 10.0 13.0 0.00 0.00 0.00 59 1008.2
20260504215056 80 170 13.0 16.0 0.00 0.00 0.00 59 1008.1
20260504214551 81 199 7.0 9.0 0.00 0.00 0.00 59 1008.2
20260504214048 80 42 11.0 14.0 0.00 0.00 0.00 59 1008.2
20260504213544 80 312 8.0 11.0 0.00 0.00 0.00 59 1008.4
20260504213042 80 116 12.0 14.0 0.00 0.00 0.00 60 1008.6
20260504212537 81 202 9.0 14.0 0.00 0.00 0.00 58 1008.6
20260504212035 81 169 9.0 13.0 0.00 0.00 0.00 59 1008.6
20260504211532 81 206 5.0 8.0 0.00 0.00 0.00 58 1008.6
20260504211029 81 182 9.0 11.0 0.00 0.00 0.00 58 1008.6
20260504210526 81 177 9.0 13.0 0.00 0.00 0.00 57 1008.8
20260504210022 81 203 7.0 8.0 0.00 0.00 0.00 58 1008.9
20260504205520 81 325 8.0 11.0 0.00 0.00 0.00 58 1008.8
20260504205018 81 206 10.0 13.0 0.00 0.00 0.00 58 1009.0
20260504204516 81 152 6.0 7.0 0.00 0.00 0.00 59 1009.2
20260504204015 80 243 5.0 6.0 0.00 0.00 0.00 60 1009.4
20260504203512 80 196 8.0 9.0 0.00 0.00 0.00 59 1009.6
20260504203009 81 206 15.0 18.0 0.00 0.00 0.00 57 1009.7
20260504202505 81 187 6.0 9.0 0.00 0.00 0.00 57 1009.8
20260504202002 81 179 9.0 13.0 0.00 0.00 0.00 57 1009.8
20260504201459 81 186 9.0 10.0 0.00 0.00 0.00 58 1010.0
20260504200956 80 140 11.0 14.0 0.00 0.00 0.00 58 1010.0
20260504200453 81 187 8.0 10.0 0.00 0.00 0.00 58 1010.2
20260504195949 81 192 7.0 8.0 0.00 0.00 0.00 58 1010.4
20260504195445 80 105 7.0 10.0 0.00 0.00 0.00 59 1010.4
20260504194942 80 189 9.0 10.0 0.00 0.00 0.00 59 1010.7
20260504194438 80 173 8.0 13.0 0.00 0.00 0.00 59 1010.4
20260504193934 80 184 10.0 14.0 0.00 0.00 0.00 58 1010.6
20260504193432 80 182 7.0 8.0 0.00 0.00 0.00 58 1010.4
20260504192930 79 210 10.0 14.0 0.00 0.00 0.00 58 1010.6
20260504192427 80 227 5.0 8.0 0.00 0.00 0.00 59 1010.6
20260504191926 80 258 10.0 15.0 0.00 0.00 0.00 57 1010.8
20260504191424 79 206 13.0 15.0 0.00 0.00 0.00 58 1011.0
20260504190919 80 226 8.0 10.0 0.00 0.00 0.00 57 1010.9
20260504190415 79 165 11.0 14.0 0.00 0.00 0.00 59 1011.2
20260504185912 80 216 7.0 10.0 0.00 0.00 0.00 57 1011.0
20260504185409 79 75 9.0 14.0 0.00 0.00 0.00 57 1011.2
20260504184905 80 178 9.0 16.0 0.00 0.00 0.00 56 1011.1
20260504184401 79 213 8.0 10.0 0.00 0.00 0.00 57 1011.4
20260504183857 78 221 11.0 15.0 0.00 0.00 0.00 57 1011.3
20260504183354 78 185 5.0 8.0 0.00 0.00 0.00 59 1011.3
20260504182852 78 264 8.0 11.0 0.00 0.00 0.00 58 1011.6
20260504182349 78 188 5.0 7.0 0.00 0.00 0.00 58 1011.7
20260504181845 77 142 14.0 17.0 0.00 0.00 0.00 58 1011.8
20260504181343 78 150 7.0 8.0 0.00 0.00 0.00 56 1011.6
20260504180842 77 192 8.0 11.0 0.00 0.00 0.00 57 1011.9
20260504180340 78 182 7.0 10.0 0.00 0.00 0.00 55 1012.0
20260504175838 77 193 11.0 17.0 0.00 0.00 0.00 56 1012.2
20260504175334 77 221 10.0 13.0 0.00 0.00 0.00 56 1012.1
20260504174832 77 255 9.0 13.0 0.00 0.00 0.00 56 1012.2
20260504174330 77 21 5.0 7.0 0.00 0.00 0.00 56 1012.1
20260504173826 77 156 13.0 20.0 0.00 0.00 0.00 55 1011.9
20260504173323 76 182 7.0 13.0 0.00 0.00 0.00 57 1012.3
20260504172820 76 217 13.0 16.0 0.00 0.00 0.00 56 1012.6
20260504172317 77 214 6.0 7.0 0.00 0.00 0.00 56 1012.5
20260504171812 76 186 8.0 14.0 0.00 0.00 0.00 57 1012.6
20260504171310 76 157 6.0 8.0 0.00 0.00 0.00 57 1012.6
20260504170807 75 184 11.0 15.0 0.00 0.00 0.00 55 1012.9
20260504170304 75 191 9.0 11.0 0.00 0.00 0.00 56 1013.1